Location: Peterborough
(44.3091°N, 78.3197°W)
Time: 16:49:07
(UTC-04:00)

Transit 4A - Pass Details

Date: 27 March 2023
Orbit: 864 x 980 km, 66.8° (Epoch: 04 June)

Event Time Altitude Azimuth Distance (km) Brightness Sun altitude
Rises 07:18:59 0° 213° (SSW) 3,431 10.5 1.9°
Reaches altitude 10° 07:21:26 10° 215° (SW) 2,500 9.8 2.3°
Maximum altitude 07:27:12 80° 302° (WNW) 892 7.9 3.3°
Drops below altitude 10° 07:33:08 10° 30° (NNE) 2,563 10.7 4.4°
Sets 07:35:41 0° 32° (NNE) 3,522 11.4 4.8°
